Flag for U.S.A. Weather past 2 weeks in Grand Prairie, Texas, U.S.A.

Now
86 °F

Clear.


Feels Like: 88 °F
Forecast: 80 / 98 °F
Wind: 5 mph from Southeast

Location: Grand Prairie Municipal Airport

Current Time: Aug 4, 2015 at 12:32:51 AM

Latest Report: Aug 3, 2015 at 11:55 PM


Visibility: 10 mi

Pressure: 29.91 "Hg

Humidity: 48%

Dew point: 64 °F

Location of Grand PrairieLocation

Historic Weather in Grand Prairie — Graph

°F

Grand Prairie temperature yesterday

Maximum temperature yesterday: 99 °F (at 2:50 PM)
Minimum temperature yesterday: 79 °F (at 6:35 AM)
Average temperature yesterday: 87 °F

Past Weeks' High & Low Weather Summary

 TemperatureHumidityPressure
High102 °F (Jul 28, 9:50 AM)81% (Jul 20, 5:55 AM)30.12 "Hg (Jul 20, 5:55 AM)
Low77 °F (Jul 26, 6:50 AM)25% (Aug 1, 4:50 PM)29.81 "Hg (Jul 21, 6:50 PM)
Average87 °F54%29.95 "Hg
* Reported Jul 19 10:15 PM — Aug 3 10:55 PM, Grand Prairie, Weather by CustomWeather, © 2015

Note: Actual official high and low records may vary slightly from our data, if they occured in-between our weather recording intervals... More about our weather records

Advertising

Grand Prairie weather history for previous 24 hours

 ConditionsComfort  
Time TempWeatherWind HumidityBarometerVisibility
10:55 PM
Mon, Aug 3
87 °FClear.3 mph45%29.91 "Hg10 mi
10:35 PM88 °FClear.5 mph43%29.91 "Hg10 mi
10:15 PM88 °FClear.3 mph42%29.90 "Hg10 mi
9:55 PM89 °FClear.5 mph40%29.90 "Hg10 mi
9:35 PM89 °FClear.5 mph39%29.89 "Hg10 mi
9:15 PM90 °FSunny.6 mph37%29.88 "Hg10 mi
8:55 PM91 °FSunny.6 mph36%29.88 "Hg10 mi
8:35 PM92 °FSunny.8 mph35%29.88 "Hg10 mi
8:15 PM93 °FSunny.7 mph36%29.88 "Hg10 mi
7:50 PM93 °FSunny.12 mph36%29.87 "Hg10 mi
6:50 PM97 °FSunny.9 mph30%29.86 "Hg10 mi
5:50 PM99 °FSunny.10 mph29%29.86 "Hg10 mi
4:50 PM99 °FSunny.5 mph31%29.88 "Hg10 mi
3:50 PM99 °FSunny.No wind31%29.89 "Hg10 mi
2:50 PM99 °FSunny.5 mph31%29.91 "Hg10 mi
1:50 PM97 °FSunny.5 mph34%29.93 "Hg10 mi
12:50 PM95 °FSunny.5 mph36%29.93 "Hg10 mi
11:50 AM93 °FSunny.5 mph39%29.95 "Hg10 mi
9:50 AM86 °FSunny.3 mph49%29.95 "Hg10 mi
8:50 AM82 °FSunny.3 mph55%29.95 "Hg10 mi
7:50 AM81 °FSunny.No wind54%29.93 "Hg10 mi
6:35 AM79 °FClear.No wind57%29.91 "Hg10 mi
6:15 AM80 °FClear.No wind56%29.91 "Hg10 mi
5:55 AM80 °FClear.No wind56%29.91 "Hg10 mi
5:35 AM80 °FClear.3 mph55%29.91 "Hg10 mi
5:15 AM81 °FClear.No wind54%29.90 "Hg10 mi
4:35 AM81 °FClear.No wind56%29.89 "Hg10 mi
4:15 AM81 °FClear.No wind54%29.89 "Hg10 mi
3:55 AM81 °FClear.3 mph54%29.89 "Hg10 mi
3:35 AM81 °FClear.No wind53%29.88 "Hg10 mi
3:15 AM81 °FClear.3 mph52%29.89 "Hg10 mi
2:55 AM80 °FClear.3 mph50%29.89 "Hg10 mi
2:35 AM82 °FClear.3 mph47%29.89 "Hg10 mi
2:15 AM82 °FClear.3 mph45%29.89 "Hg10 mi
1:55 AM82 °FClear.3 mph45%29.89 "Hg10 mi
1:35 AM82 °FClear.5 mph44%29.89 "Hg10 mi
1:15 AM83 °FClear.3 mph43%29.90 "Hg10 mi
12:55 AM83 °FClear.No wind43%29.90 "Hg10 mi
12:35 AM83 °FClear.3 mph41%29.90 "Hg10 mi
12:15 AM83 °FClear.3 mph42%29.89 "Hg10 mi
Weather by CustomWeather, © 2015

See weather overviewHow to use our weather pages